{"data":{"norad_id":55488,"intl_designator":"2023-015AR","name":"STARLINK-5706","alt_names":[],"object_type":"PAYLOAD","status":"ACTIVE","operator":null,"country":"US","launch_date":"2023-02-02","launch_site_code":"AFETR","launch_vehicle":null,"mission":null,"orbit_class":"UNKNOWN","rcs_meters":null,"size_class":null,"mass_kg":null,"dimensions":null,"purposes":["comms"],"wikipedia_slug":null,"has_3d_model":false,"image_url":null,"decayed_at":null,"tle_current":{"epoch":"2026-05-25T01:12:12.520224Z","epoch_age_seconds":77514,"freshness":"FRESH","line1":"1 55488U 23015AR  26145.05014491  .00004777  00000+0  18308-3 0  9990","line2":"2 55488  43.0031 268.4804 0001285 301.7947  58.2780 15.27565442182273","mean_motion":15.27565442,"eccentricity":0.0001285,"inclination_deg":43.0031,"raan_deg":268.4804,"arg_perigee_deg":301.7947,"mean_anomaly_deg":58.278,"bstar":0.00018308,"rev_number":18227,"period_min":94.267647094363,"perigee_km":482.21102026012,"apogee_km":483.97435629001,"semimajor_km":6861.2296882751,"source":"CELESTRAK","updated_at":"2026-05-25T13:38:17.810456Z"}}}